Parsons, KS

12:46 AM CST on December 17, 2017 (GMT -0600)
Tri-City

Weather History for KPPF - February, 2013

Change the Weather History Date:

Wednesday, February 27, 2013

  Actual Average Record
Temperature  
Mean Temperature 34 °F -  
Max Temperature 39 °F 54 °F 80 °F (1976)
Min Temperature 30 °F 31 °F 5 °F (2002)
Degree Days  
Heating Degree Days 30    
Moisture  
Dew Point 27 °F    
Average Humidity 79    
Maximum Humidity 93    
Minimum Humidity 62    
Precipitation  
Precipitation 0.00 in - - ()
Sea Level Pressure  
Sea Level Pressure 30.02 in    
Wind  
Wind Speed 11 mph (NW)    
Max Wind Speed 20 mph    
Max Gust Speed 25 mph    
Visibility 6 miles    
Events Snow    
Averages and records for this station are not official NWS values.
T = Trace of Precipitation, MM = Missing Value Source: NWS Daily Summary

Daily Weather History Graph

Daily Weather History Graph

Search for Another Location

Airport or City:

Trip Planner

Search our weather history database for the weather conditions in past years. The results will help you decide how hot, cold, wet, or windy it might be!

Date:

Astronomy

Feb. 27, 2013 Rise Set
Actual Time 6:55 AM CST 6:14 PM CST
Civil Twilight 6:29 AM CST 6:40 PM CST
Nautical Twilight 5:59 AM CST 7:10 PM CST
Astronomical Twilight 5:28 AM CST 7:41 PM CST
Moon 8:32 PM CST (2/27) 7:35 AM CST (2/27)
Length of Visible Light 12h 11m
Length of Day
11h 18m
Waning Gibbous, 96% of the Moon is Illuminated
Feb 27
Waning Gibbous
Mar 4
Last Quarter
Mar 11
New
Mar 19
First Quarter
Mar 27
Full

Hourly Weather History & Observations

Time (CST) Temp. Windchill Dew Point Humidity Pressure Visibility Wind Dir Wind Speed Gust Speed Precip Events Conditions
12:52 AM 33.1 °F 26.9 °F 28.9 °F 85% 29.90 in 5.0 mi NNW 6.9 mph - N/A   Overcast
1:52 AM 33.1 °F 26.1 °F 28.9 °F 85% 29.94 in 5.0 mi WNW 8.1 mph - N/A   Overcast
2:52 AM 32.0 °F 22.1 °F 28.0 °F 85% 29.94 in 5.0 mi NNW 13.8 mph - N/A   Overcast
3:52 AM 32.0 °F - 27.0 °F 82% 29.95 in 5.0 mi North - - N/A   Haze
4:52 AM 30.9 °F - 28.0 °F 89% 29.96 in 5.0 mi North - - N/A   Overcast
5:08 AM 30.2 °F 22.6 °F 26.6 °F 86% 29.94 in 5.0 mi NW 8.1 mph - N/A   Overcast
5:52 AM 30.9 °F 23.5 °F 27.0 °F 85% 29.96 in 4.0 mi WNW 8.1 mph - N/A   Overcast
6:36 AM 30.2 °F 20.8 °F 26.6 °F 86% 29.96 in 5.0 mi NW 11.5 mph - N/A   Overcast
6:52 AM 30.9 °F 22.8 °F 27.0 °F 85% 29.99 in 5.0 mi NW 9.2 mph - N/A   Overcast
7:31 AM 30.2 °F 20.2 °F 26.6 °F 86% 29.98 in 2.0 mi NW 12.7 mph - 0.00 in Snow Light Snow
7:34 AM 30.2 °F 20.2 °F 26.6 °F 86% 29.98 in 1.8 mi NW 12.7 mph - 0.00 in Snow Light Snow
7:45 AM 30.2 °F 21.9 °F 28.4 °F 93% 29.99 in 1.0 mi NW 9.2 mph - 0.00 in Snow Light Snow
7:52 AM 30.9 °F 21.7 °F 28.0 °F 89% 30.01 in 1.2 mi NW 11.5 mph - 0.00 in Snow Light Snow
7:56 AM 30.2 °F 21.9 °F 28.4 °F 93% 29.99 in 1.8 mi WNW 9.2 mph - 0.00 in Snow Light Snow
8:03 AM 32.0 °F 23.6 °F 28.4 °F 87% 29.99 in 2.5 mi WNW 10.4 mph - 0.00 in   Overcast
8:05 AM 32.0 °F 23.6 °F 28.4 °F 87% 29.99 in 3.0 mi NW 10.4 mph - 0.00 in   Overcast
8:17 AM 32.0 °F 23.0 °F 28.4 °F 87% 30.00 in 3.0 mi WNW 11.5 mph - 0.00 in   Overcast
8:31 AM 32.0 °F 21.6 °F 28.4 °F 87% 30.01 in 4.0 mi WNW 15.0 mph 18.4 mph 0.00 in   Overcast
8:52 AM 32.0 °F 22.1 °F 27.0 °F 82% 30.03 in 5.0 mi NW 13.8 mph - 0.00 in   Haze
9:29 AM 33.8 °F 24.3 °F 26.6 °F 75% 30.01 in 6.0 mi WNW 13.8 mph - N/A   Haze
9:52 AM 34.0 °F 25.5 °F 28.0 °F 79% 30.03 in 6.0 mi NW 11.5 mph - N/A   Haze
10:52 AM 35.1 °F 25.5 °F 28.0 °F 76% 30.04 in 6.0 mi NW 15.0 mph - N/A   Haze
11:52 AM 34.0 °F 23.4 °F 26.1 °F 73% 30.06 in 8.0 mi NW 17.3 mph 23.0 mph N/A   Overcast
12:52 PM 33.1 °F 21.9 °F 26.1 °F 75% 30.06 in 9.0 mi NW 18.4 mph 23.0 mph N/A   Overcast
1:36 PM 37.4 °F 28.2 °F 28.4 °F 70% 30.03 in 10.0 mi WNW 16.1 mph 23.0 mph N/A   Scattered Clouds
1:52 PM 37.0 °F 27.7 °F 28.0 °F 70% 30.05 in 10.0 mi NW 16.1 mph 21.9 mph N/A   Partly Cloudy
2:22 PM 37.4 °F 27.2 °F 28.4 °F 70% 30.04 in 10.0 mi WNW 19.6 mph 25.3 mph N/A   Mostly Cloudy
2:47 PM 37.4 °F 28.2 °F 28.4 °F 70% 30.05 in 10.0 mi NW 16.1 mph 21.9 mph N/A   Scattered Clouds
2:52 PM 39.0 °F 29.9 °F 28.0 °F 65% 30.07 in 10.0 mi WNW 17.3 mph 24.2 mph N/A   Scattered Clouds
4:52 PM 39.0 °F 30.3 °F 27.0 °F 62% 30.08 in 10.0 mi WNW 16.1 mph 21.9 mph N/A   Clear
5:52 PM 37.9 °F 30.9 °F 26.1 °F 62% 30.09 in 10.0 mi NW 10.4 mph 19.6 mph N/A   Clear
6:52 PM 35.1 °F 28.6 °F 26.1 °F 70% 30.11 in 10.0 mi West 8.1 mph - N/A   Clear
7:52 PM 36.0 °F 29.0 °F 26.1 °F 67% 30.12 in 10.0 mi WNW 9.2 mph - N/A   Clear
8:52 PM 36.0 °F 27.1 °F 26.1 °F 67% 30.12 in 10.0 mi NW 13.8 mph 23.0 mph N/A   Clear
9:52 PM 35.1 °F 26.9 °F 26.1 °F 70% 30.14 in 10.0 mi NW 11.5 mph 19.6 mph N/A   Clear
10:52 PM 34.0 °F 26.0 °F 26.1 °F 73% 30.15 in 10.0 mi WNW 10.4 mph - N/A   Clear
11:52 PM 34.0 °F 24.2 °F 26.1 °F 73% 30.13 in 10.0 mi NW 15.0 mph - N/A   Clear